Location: LDNL
(36.4545°S, 141.6685°E)
Time: 16:33:05
(UTC+10:00)

Courier 1B - Pass Details

Date: 09 August 2022
Orbit: 962 x 1209 km, 28.3° (Epoch: 25 September)

Event Time Altitude Azimuth Distance (km) Brightness Sun altitude
Exits shadow 04:17:29 34° 31° (NNE) 1,835 9.0 -37.7°
Drops below altitude 10° 04:22:04 10° 59° (ENE) 3,034 10.6 -36.8°
Sets 04:24:56 0° 66° (ENE) 3,957 11.4 -36.2°
